Weather History for Lancaster, SC

Change the Weather History Date:

Thursday, January 17, 2013

  Actual Average (KUZA) Record (KUZA)
Temperature  
Mean Temperature 46 °F -  
Max Temperature 55 °F 50 °F 77 °F (1949)
Min Temperature 35 °F 29 °F 5 °F (1977)
Degree Days  
Heating Degree Days 19    
Moisture  
Dew Point 50 °F    
Average Humidity 100    
Maximum Humidity 100    
Minimum Humidity 100    
Precipitation  
Precipitation 1.34 in - - ()
Sea Level Pressure  
Sea Level Pressure 29.92 in    
Wind  
Wind Speed 4 mph (NNE)    
Max Wind Speed 21 mph    
Max Gust Speed 26 mph    
Visibility 5 miles    
Events Fog , Rain    
Averages and records for this station are not official NWS values.
T = Trace of Precipitation, MM = Missing Value Source: NWS Daily Summary

Daily Weather History Graph

Daily Weather History Graph

Search for Another Location

Airport:

Trip Planner

Search our weather history database for the weather conditions in past years. The results will help you decide how hot, cold, wet, or windy it might be!

Date:

Astronomy

Jan. 17, 2013 Rise Set
Actual Time 7:29 AM EST 5:37 PM EST
Civil Twilight 7:02 AM EST 6:05 PM EST
Nautical Twilight 6:31 AM EST 6:36 PM EST
Astronomical Twilight 6:01 AM EST 7:06 PM EST
Moon 10:53 AM EST (1/17) No Moon Set
Length of Visible Light 11h 02m
Length of Day
10h 08m
Waxing Crescent, 37% of the Moon is Illuminated
Jan 17
Waxing Crescent
Jan 18
First Quarter
Jan 26
Full
Feb 3
Last Quarter
Feb 10
New

Hourly Weather History & Observations

Time (EST) Temp. Windchill Dew Point Humidity Pressure Visibility Wind Dir Wind Speed Gust Speed Precip Events Conditions
12:15 AM 53.6 °F - 53.6 °F 100% 29.98 in 3.0 mi Calm Calm - 0.01 in Rain Light Rain
12:35 AM 53.6 °F - 53.6 °F 100% 29.98 in 2.5 mi Calm Calm - 0.04 in Rain Light Rain
12:55 AM 53.6 °F - 53.6 °F 100% 29.98 in 2.0 mi Calm Calm - 0.05 in Rain Light Rain
1:15 AM 53.6 °F - 53.6 °F 100% 29.97 in 4.0 mi Calm Calm - N/A Rain Light Rain
1:35 AM 53.6 °F - 53.6 °F 100% 29.97 in 2.0 mi Calm Calm - 0.03 in Rain Light Rain
1:55 AM 53.6 °F - 53.6 °F 100% 29.97 in 2.5 mi Calm Calm - 0.04 in Rain Light Rain
2:15 AM 53.6 °F - 53.6 °F 100% 29.96 in 2.5 mi Calm Calm - N/A Rain Light Rain
2:35 AM 53.6 °F - 53.6 °F 100% 29.97 in 4.0 mi Calm Calm - 0.01 in Rain Light Rain
2:55 AM 53.6 °F - 53.6 °F 100% 29.96 in 2.0 mi Calm Calm - 0.02 in Rain Light Rain
3:15 AM 53.6 °F - 53.6 °F 100% 29.95 in 4.0 mi Calm Calm - N/A Rain Light Rain
3:35 AM 53.6 °F - 53.6 °F 100% 29.95 in 9.0 mi Calm Calm - 0.01 in   Overcast
3:55 AM 53.6 °F - 53.6 °F 100% 29.95 in 2.5 mi Calm Calm - 0.01 in Rain Light Rain
4:15 AM 53.6 °F - 53.6 °F 100% 29.94 in 10.0 mi Calm Calm - N/A   Overcast
4:35 AM 53.6 °F - 53.6 °F 100% 29.93 in 3.0 mi Calm Calm - 0.02 in Rain Light Rain
4:55 AM 55.4 °F - 55.4 °F 100% 29.94 in 10.0 mi Calm Calm - 0.03 in   Overcast
5:15 AM 53.6 °F - 53.6 °F 100% 29.94 in 7.0 mi Calm Calm - N/A   Overcast
5:35 AM 53.6 °F - 53.6 °F 100% 29.94 in 3.0 mi Calm Calm - N/A Rain Light Rain
5:55 AM 53.6 °F - 53.6 °F 100% 29.93 in 3.0 mi Calm Calm - 0.01 in   Overcast
6:15 AM 53.6 °F - 53.6 °F 100% 29.93 in 10.0 mi Calm Calm - N/A   Overcast
6:35 AM 53.6 °F - 53.6 °F 100% 29.94 in 2.0 mi Calm Calm - 0.01 in Rain Light Rain
6:55 AM 53.6 °F - 53.6 °F 100% 29.93 in 1.8 mi Calm Calm - 0.03 in Rain Light Rain
7:15 AM 53.6 °F - 53.6 °F 100% 29.94 in 8.0 mi Calm Calm - N/A   Overcast
7:35 AM 53.6 °F - 53.6 °F 100% 29.94 in 7.0 mi Calm Calm - N/A   Overcast
7:55 AM 53.6 °F - 53.6 °F 100% 29.94 in 3.0 mi NE 3.5 mph - N/A   Overcast
8:15 AM 53.6 °F - 53.6 °F 100% 29.94 in 1.2 mi NNE 5.8 mph - N/A   Overcast
8:35 AM 53.6 °F - 53.6 °F 100% 29.95 in 0.8 mi Calm Calm - N/A   Overcast
8:55 AM 53.6 °F - 53.6 °F 100% 29.95 in 0.5 mi NE 4.6 mph - N/A Fog Fog
9:15 AM 53.6 °F - 53.6 °F 100% 29.94 in 0.5 mi NE 4.6 mph - 0.01 in Rain Light Rain
9:35 AM 53.6 °F - 53.6 °F 100% 29.95 in 1.2 mi Calm Calm - 0.07 in Rain Rain
10:15 AM 53.6 °F - 53.6 °F 100% 29.95 in 3.0 mi NE 3.5 mph - 0.01 in Rain Light Rain
10:55 AM 53.6 °F - 53.6 °F 100% 29.93 in 5.0 mi ENE 6.9 mph - 0.03 in Rain Light Rain
11:15 AM 53.6 °F - 53.6 °F 100% 29.92 in 1.5 mi ENE 6.9 mph - 0.10 in Rain Rain
11:35 AM 51.8 °F - 51.8 °F 100% 29.91 in 7.0 mi NE 5.8 mph - 0.11 in Rain Light Rain
11:55 AM 51.8 °F - 51.8 °F 100% 29.90 in 10.0 mi NE 6.9 mph 16.1 mph 0.11 in   Overcast
12:15 PM 51.8 °F - 51.8 °F 100% 29.88 in 10.0 mi East 5.8 mph - 0.01 in   Overcast
12:35 PM 50.0 °F - 50.0 °F 100% 29.86 in 10.0 mi ENE 10.4 mph 18.4 mph 0.01 in   Overcast
12:55 PM 50.0 °F - 50.0 °F 100% 29.86 in 5.0 mi NE 8.1 mph - 0.01 in Rain Light Rain
1:15 PM 50.0 °F - 50.0 °F 100% 29.83 in 8.0 mi NE 4.6 mph - N/A   Overcast
1:35 PM 50.0 °F - 50.0 °F 100% 29.80 in 8.0 mi ENE 6.9 mph - N/A   Overcast
1:55 PM 50.0 °F - 50.0 °F 100% 29.79 in 9.0 mi NE 5.8 mph - N/A   Overcast
2:15 PM 50.0 °F - 50.0 °F 100% 29.77 in 6.0 mi ENE 8.1 mph 16.1 mph N/A   Overcast
2:35 PM 50.0 °F - 50.0 °F 100% 29.77 in 5.0 mi NE 5.8 mph - N/A   Overcast
2:55 PM 50.0 °F - 50.0 °F 100% 29.76 in 5.0 mi ENE 6.9 mph - N/A   Overcast
3:15 PM 50.0 °F - 50.0 °F 100% 29.74 in 4.0 mi ENE 12.7 mph 21.9 mph N/A   Overcast
3:35 PM 50.0 °F - 50.0 °F 100% 29.73 in 4.0 mi NE 10.4 mph 21.9 mph N/A   Overcast
3:55 PM 50.0 °F - 50.0 °F 100% 29.72 in 3.0 mi NE 15.0 mph 20.7 mph 0.03 in Rain Light Rain
4:15 PM 50.0 °F - 50.0 °F 100% 29.80 in 0.8 mi West 18.4 mph 25.3 mph 0.29 in Rain Heavy Rain
4:35 PM 48.2 °F - 48.2 °F 100% 29.82 in 2.5 mi NW 8.1 mph 17.3 mph 0.42 in Rain Light Rain
4:55 PM 46.4 °F 39.8 °F 46.4 °F 100% 29.84 in 2.0 mi NNW 16.1 mph 21.9 mph 0.54 in Rain Rain
5:15 PM 44.6 °F 36.4 °F 44.6 °F 100% 29.84 in 2.5 mi North 20.7 mph 26.5 mph 0.04 in Rain Light Rain
5:35 PM 44.6 °F 36.9 °F 44.6 °F 100% 29.82 in 4.0 mi NNE 18.4 mph 26.5 mph 0.08 in Rain Light Rain
5:55 PM 44.6 °F 37.4 °F 44.6 °F 100% 29.83 in 3.0 mi NNE 16.1 mph 21.9 mph 0.13 in Rain Light Rain
6:15 PM 42.8 °F 36.2 °F 42.8 °F 100% 29.80 in 5.0 mi NNE 12.7 mph - 0.05 in Rain Light Rain
6:35 PM 42.8 °F 37.5 °F 42.8 °F 100% 29.84 in 10.0 mi North 9.2 mph 17.3 mph 0.05 in Rain Light Rain
6:55 PM 42.8 °F 41.1 °F 42.8 °F 100% 29.89 in 10.0 mi WSW 3.5 mph - 0.06 in Rain Light Rain
7:15 PM 42.8 °F 41.1 °F 42.8 °F 100% 29.89 in 4.0 mi North 3.5 mph - 0.01 in Rain Light Rain
8:15 PM 42.8 °F 37.0 °F 42.8 °F 100% 29.96 in 7.0 mi NNE 10.4 mph 20.7 mph N/A Rain Light Rain
8:35 PM 41.0 °F 34.3 °F 41.0 °F 100% 29.98 in 3.0 mi North 11.5 mph 19.6 mph 0.02 in Rain Light Rain
8:55 PM 41.0 °F 34.3 °F 41.0 °F 100% 30.01 in 7.0 mi North 11.5 mph 17.3 mph 0.04 in Rain Light Rain
9:15 PM 41.0 °F 33.1 °F 41.0 °F 100% 30.04 in 7.0 mi North 15.0 mph 24.2 mph 0.01 in Rain Light Rain
9:35 PM 41.0 °F 33.5 °F 41.0 °F 100% 30.08 in 5.0 mi North 13.8 mph 21.9 mph 0.03 in Rain Light Rain
9:55 PM 39.2 °F 31.6 °F 39.2 °F 100% 30.11 in 5.0 mi North 12.7 mph 20.7 mph 0.06 in Rain Light Rain
10:15 PM 39.2 °F 32.0 °F 39.2 °F 100% 30.15 in 7.0 mi North 11.5 mph 17.3 mph 0.02 in Rain Light Rain
10:35 PM 37.4 °F 27.8 °F 37.4 °F 100% 30.16 in 5.0 mi North 17.3 mph 23.0 mph 0.04 in Rain Light Rain
10:55 PM 35.6 °F 26.6 °F 35.6 °F 100% 30.18 in 6.0 mi North 13.8 mph - 0.06 in Rain Light Rain